Estación de San Rafael
Ultimos registro cada 15 minutos 89
| N° | Estación | Fecha / Hora | Temperatura | Humedad | Lluvia | Velocidad | Dirección | Radiación | Presion |
| 89 | San Rafael | 08-05-2026 22:00 | 10,3 | 95,3 | 0 | 0,5 | 188 | 0,6 | 1001,9 |
| 88 | San Rafael | 08-05-2026 21:45 | 10,3 | 95 | 0 | 0 | 190 | 0,6 | 1002,1 |
| 87 | San Rafael | 08-05-2026 21:30 | 10,3 | 94,5 | 0 | 0 | 183 | 0,6 | 1002 |
| 86 | San Rafael | 08-05-2026 21:15 | 10,8 | 93,7 | 0 | 0 | 187 | 0,6 | 1002 |
| 85 | San Rafael | 08-05-2026 21:00 | 11 | 93,4 | 0 | 0 | 175 | 0,6 | 1002 |
| 84 | San Rafael | 08-05-2026 20:45 | 11,3 | 93 | 0 | 0 | 173 | 0,6 | 1001,9 |
| 83 | San Rafael | 08-05-2026 20:30 | 11,3 | 92,8 | 0 | 0 | 177 | 0,6 | 1001,8 |
| 82 | San Rafael | 08-05-2026 20:15 | 11,4 | 92,7 | 0 | 0 | 180 | 0,6 | 1001,7 |
| 81 | San Rafael | 08-05-2026 20:00 | 11,5 | 92,4 | 0 | 0,5 | 178 | 0,6 | 1001,6 |
| 80 | San Rafael | 08-05-2026 19:45 | 11,6 | 92,1 | 0 | 1 | 177 | 0,6 | 1001,7 |
| 79 | San Rafael | 08-05-2026 19:30 | 11,8 | 91,7 | 0 | 1 | 174 | 0,6 | 1001,5 |
| 78 | San Rafael | 08-05-2026 19:15 | 11,9 | 91 | 0 | 1 | 181 | 0,6 | 1001,4 |
| 77 | San Rafael | 08-05-2026 19:00 | 12,2 | 90,3 | 0 | 0,5 | 184 | 0,6 | 1001,2 |
| 76 | San Rafael | 08-05-2026 18:45 | 12,4 | 89,8 | 0 | 0,5 | 178 | 0,6 | 1001,1 |
| 75 | San Rafael | 08-05-2026 18:30 | 12,5 | 90 | 0 | 0 | 183 | 0,6 | 1000,9 |
| 74 | San Rafael | 08-05-2026 18:15 | 12,6 | 89,6 | 0 | 0 | 225 | 0,6 | 1001,1 |
| 73 | San Rafael | 08-05-2026 18:00 | 12,7 | 89,2 | 0 | 0 | 204 | 0,6 | 1001,1 |
| 72 | San Rafael | 08-05-2026 17:45 | 12,8 | 89,3 | 0 | 0 | 195 | 4,4 | 1001,2 |
| 71 | San Rafael | 08-05-2026 17:30 | 12,8 | 88,9 | 0 | 0 | 190 | 9,4 | 1001,1 |
| 70 | San Rafael | 08-05-2026 17:15 | 13,1 | 87,4 | 0 | 0,5 | 166 | 23,1 | 1001,3 |
| 69 | San Rafael | 08-05-2026 17:00 | 13,6 | 84,8 | 0 | 0,5 | 129 | 46,9 | 1001,2 |
| 68 | San Rafael | 08-05-2026 16:45 | 13,8 | 84,1 | 0 | 0 | 126 | 60,6 | 1001,1 |
| 67 | San Rafael | 08-05-2026 16:30 | 13,8 | 83,5 | 0 | 0 | 125 | 91,9 | 1000,9 |
| 66 | San Rafael | 08-05-2026 16:15 | 13,9 | 83,9 | 0 | 0,5 | 142 | 140,6 | 1000,8 |
| 65 | San Rafael | 08-05-2026 16:00 | 13,6 | 81,6 | 0 | 1 | 164 | 183,1 | 1000,6 |
| 64 | San Rafael | 08-05-2026 15:45 | 13,4 | 80,5 | 0 | 1,5 | 168 | 175,6 | 1000,7 |
| 63 | San Rafael | 08-05-2026 15:30 | 13,6 | 78,5 | 0 | 1,5 | 180 | 174,4 | 1000,7 |
| 62 | San Rafael | 08-05-2026 15:15 | 14,8 | 70,5 | 0 | 1,5 | 183 | 170,6 | 1000,9 |
| 61 | San Rafael | 08-05-2026 15:00 | 15,9 | 62,3 | 0 | 2 | 171 | 316,9 | 1000,6 |
| 60 | San Rafael | 08-05-2026 14:45 | 16,9 | 59,9 | 0 | 1,5 | 177 | 770,6 | 1000,5 |
| 59 | San Rafael | 08-05-2026 14:30 | 17,6 | 59,1 | 0 | 0,5 | 159 | 753,1 | 1000,8 |
| 58 | San Rafael | 08-05-2026 14:15 | 16,5 | 58,6 | 0 | 0,5 | 164 | 251,9 | 1000,6 |
| 57 | San Rafael | 08-05-2026 14:00 | 17,7 | 56 | 0 | 0,5 | 163 | 734,4 | 1000,6 |
| 56 | San Rafael | 08-05-2026 13:45 | 16,3 | 55,7 | 0 | 0,5 | 161 | 214,4 | 1000,9 |
| 55 | San Rafael | 08-05-2026 13:30 | 16,4 | 54,2 | 0 | 0,5 | 140 | 839,4 | 1000,9 |
| 54 | San Rafael | 08-05-2026 13:15 | 16,7 | 55 | 0 | 0 | 153 | 418,1 | 1001,2 |
| 53 | San Rafael | 08-05-2026 13:00 | 16,2 | 54,9 | 0 | 0 | 185 | 325,6 | 1001,4 |
| 52 | San Rafael | 08-05-2026 12:45 | 16,3 | 51,5 | 0 | 0 | 216 | 381,9 | 1001,6 |
| 51 | San Rafael | 08-05-2026 12:30 | 16,4 | 51,8 | 0 | 0 | 247 | 496,9 | 1001,6 |
| 50 | San Rafael | 08-05-2026 12:15 | 16,3 | 53,8 | 0 | 0 | 247 | 436,9 | 1001,3 |
| 49 | San Rafael | 08-05-2026 12:00 | 15,8 | 60,2 | 0 | 0 | 258 | 406,9 | 1001,4 |
| 48 | San Rafael | 08-05-2026 11:45 | 15,9 | 60,8 | 0 | 0 | 261 | 429,4 | 1001,6 |
| 47 | San Rafael | 08-05-2026 11:30 | 15,7 | 64,2 | 0 | 0,5 | 319 | 479,4 | 1002 |
| 46 | San Rafael | 08-05-2026 11:15 | 15,4 | 65,8 | 0 | 0,5 | 333 | 313,1 | 1002 |
| 45 | San Rafael | 08-05-2026 11:00 | 15,4 | 68,4 | 0 | 0 | 4 | 646,9 | 1002,4 |
| 44 | San Rafael | 08-05-2026 10:45 | 13,9 | 73,3 | 0 | 0 | 4 | 333,1 | 1002,8 |
| 43 | San Rafael | 08-05-2026 10:30 | 14 | 70,6 | 0 | 0 | 7 | 316,9 | 1002,9 |
| 42 | San Rafael | 08-05-2026 10:15 | 14 | 74,4 | 0 | 0 | 11 | 581,9 | 1003 |
| 41 | San Rafael | 08-05-2026 10:00 | 11,6 | 81,6 | 0 | 0 | 18 | 139,4 | 1002,9 |
| 40 | San Rafael | 08-05-2026 09:45 | 10,3 | 84,4 | 0 | 0,5 | 27 | 359,4 | 1003 |
| 39 | San Rafael | 08-05-2026 09:30 | 9,7 | 90,1 | 0 | 0,5 | 8 | 339,4 | 1002,9 |
| 38 | San Rafael | 08-05-2026 09:15 | 8,5 | 95,8 | 0 | 0,5 | 14 | 333,1 | 1003,4 |
| 37 | San Rafael | 08-05-2026 09:00 | 7,3 | 97 | 0 | 0 | 73 | 183,1 | 1003,5 |
| 36 | San Rafael | 08-05-2026 08:45 | 5,6 | 98,3 | 0 | 0 | 171 | 274,4 | 1003,3 |
| 35 | San Rafael | 08-05-2026 08:30 | 4,4 | 98,3 | 0 | 0 | 171 | 33,1 | 1003,6 |
| 34 | San Rafael | 08-05-2026 08:15 | 4,6 | 98,2 | 0 | 0 | 171 | 119,4 | 1003,5 |
| 33 | San Rafael | 08-05-2026 08:00 | 3,6 | 99 | 0 | 0 | 171 | 111,9 | 1003,5 |
| 32 | San Rafael | 08-05-2026 07:45 | 1,8 | 98,8 | 0 | 0 | 171 | 20,6 | 1003,7 |
| 31 | San Rafael | 08-05-2026 07:30 | 1,9 | 98,5 | 0 | 0 | 171 | 4,4 | 1003,5 |
| 30 | San Rafael | 08-05-2026 07:15 | 2,4 | 98,9 | 0 | 0 | 171 | 0,6 | 1003,1 |
| 29 | San Rafael | 08-05-2026 07:00 | 2,4 | 98,7 | 0 | 0 | 171 | 0,6 | 1003,6 |
| 28 | San Rafael | 08-05-2026 06:45 | 2,3 | 98,5 | 0 | 0 | 171 | 0,6 | 1003,8 |
| 27 | San Rafael | 08-05-2026 06:30 | 2 | 98,4 | 0 | 0 | 171 | 0,6 | 1003,8 |
| 26 | San Rafael | 08-05-2026 06:15 | 2,3 | 98,3 | 0 | 0 | 171 | 0,6 | 1004,1 |
| 25 | San Rafael | 08-05-2026 06:00 | 2,7 | 98,3 | 0 | 0 | 171 | 0,6 | 1004,1 |
| 24 | San Rafael | 08-05-2026 05:45 | 2,7 | 98,3 | 0 | 0 | 173 | 0,6 | 1004,3 |
| 23 | San Rafael | 08-05-2026 05:30 | 3 | 98,1 | 0 | 0 | 171 | 0,6 | 1004,4 |
| 22 | San Rafael | 08-05-2026 05:15 | 3,1 | 97,9 | 0 | 0 | 171 | 0,6 | 1004 |
| 21 | San Rafael | 08-05-2026 05:00 | 3 | 97,9 | 0 | 0 | 171 | 0,6 | 1003,9 |
| 20 | San Rafael | 08-05-2026 04:45 | 2,4 | 98 | 0 | 0 | 171 | 0,6 | 1004,4 |
| 19 | San Rafael | 08-05-2026 04:30 | 2,1 | 97,6 | 0 | 0 | 171 | 0,6 | 1004 |
| 18 | San Rafael | 08-05-2026 04:15 | 2,7 | 97,6 | 0 | 0 | 171 | 0,6 | 1004,1 |
| 17 | San Rafael | 08-05-2026 04:00 | 2,4 | 97,6 | 0 | 0 | 171 | 0,6 | 1004,4 |
| 16 | San Rafael | 08-05-2026 03:45 | 2,5 | 97,5 | 0 | 0 | 171 | 0,6 | 1004,3 |
| 15 | San Rafael | 08-05-2026 03:30 | 2,4 | 97,2 | 0 | 0 | 171 | 0,6 | 1004,5 |
| 14 | San Rafael | 08-05-2026 03:15 | 2,2 | 96,7 | 0 | 0 | 171 | 0,6 | 1005 |
| 13 | San Rafael | 08-05-2026 03:00 | 2,4 | 96,5 | 0 | 0 | 171 | 0,6 | 1005,2 |
| 12 | San Rafael | 08-05-2026 02:45 | 2,6 | 96,2 | 0 | 0 | 171 | 0,6 | 1005,4 |
| 11 | San Rafael | 08-05-2026 02:30 | 3,1 | 96,2 | 0 | 0 | 171 | 0,6 | 1005,5 |
| 10 | San Rafael | 08-05-2026 02:15 | 3 | 96 | 0 | 0 | 171 | 0,6 | 1005,6 |
| 9 | San Rafael | 08-05-2026 02:00 | 3,5 | 95,4 | 0 | 0 | 171 | 0,6 | 1005,5 |
| 8 | San Rafael | 08-05-2026 01:45 | 3,5 | 95 | 0 | 0 | 171 | 0,6 | 1005,4 |
| 7 | San Rafael | 08-05-2026 01:30 | 4,1 | 94,8 | 0 | 0 | 171 | 0,6 | 1005,6 |
| 6 | San Rafael | 08-05-2026 01:15 | 4,8 | 94,8 | 0 | 0 | 171 | 0,6 | 1005,7 |
| 5 | San Rafael | 08-05-2026 01:00 | 5,1 | 93,8 | 0 | 0 | 171 | 0,6 | 1005,9 |
| 4 | San Rafael | 08-05-2026 00:45 | 6,1 | 93,6 | 0 | 0 | 171 | 0,6 | 1006,1 |
| 3 | San Rafael | 08-05-2026 00:30 | 5,8 | 93,6 | 0 | 0 | 171 | 0,6 | 1006,2 |
| 2 | San Rafael | 08-05-2026 00:15 | 5,9 | 93,4 | 0 | 0 | 171 | 0,6 | 1006,2 |
| 1 | San Rafael | 08-05-2026 00:00 | 6 | 93 | 0 | 0 | 171 | 0,6 | 1006 |